PRSS 1 (43530 NORAD) Tracking and Keplerian Element Data

This shows tracking and keplerian element data for the satellite.

Feedback or suggestion? Click here.




ElementValue
Catalog43530
NamePRSS 1
Epoch Orbit128
Epoch Day198.81845672
Epoch Year2018
RAAN269.2259
Inclination98.0513
Eccentricity0.0025422
Argument of Perigee256.2968
Mean Anonmoly103.5422
Mean Motion14.87229474
Decay Rate-1.4E-06
L11 43530U 18056B 18198.81845672 -.00000140 00000-0 -89188-5 0 9999
L22 43530 98.0513 269.2259 0025422 256.2968 103.5422 14.87229474 1287

Live tracking and technical data element details for PRSS 1 (NORAD 43530). PRSS 1 can be tracked NOW for your location showing map with azimuth and elevation plus other details from your city location.

Track the satellite on the map from your city or location and see movement details for azimuth, elevation, latitude, longitude, range, height, and movement on the map or in text.







IsCatalogInMostPopularTable: catalog: 43530, numindb: 5
Update: records affected: 1



GetName: 43530 PRSS 1

Hit Count: updated at: Wed, 18 Jul 2018 20:30:40 GMT